CST,Max TemperatureF,Mean TemperatureF,Min TemperatureF,Max Dew PointF,MeanDew PointF,Min DewpointF,Max Humidity, Mean Humidity, Min Humidity, Max Sea Level PressureIn, Mean Sea Level PressureIn, Min Sea Level PressureIn, Max VisibilityMiles, Mean VisibilityMiles, Min VisibilityMiles, Max Wind SpeedMPH, Mean Wind SpeedMPH, Max Gust SpeedMPH,PrecipitationIn, CloudCover, Events, WindDirDegrees
2011-10-1,89,81,73,77,73,70,100,85,59,29.88,29.82,29.77,6,6,1,17,5,,0.00,6,Rain-Thunderstorm,76
2011-10-2,87,81,75,73,72,72,89,78,62,29.90,29.83,29.78,6,6,2,10,5,,0.00,6,Rain-Thunderstorm,330
2011-10-3,86,80,73,77,75,72,100,84,70,29.91,29.85,29.77,6,6,0,5,2,,0.00,6,Fog,157
2011-10-4,87,80,73,77,75,72,94,81,66,29.93,29.85,29.77,6,6,6,8,4,,0.00,5,Rain,108
2011-10-5,84,80,75,75,74,72,89,81,74,29.92,29.83,29.77,6,6,6,10,4,,0.00,5,Rain,273
2011-10-6,89,81,73,77,73,72,100,77,58,29.88,29.81,29.74,6,6,6,8,4,,0.00,5,Fog-Rain,128
2011-10-7,89,80,71,77,75,72,100,78,62,29.85,29.79,29.73,6,6,6,9,4,,0.00,4,Rain,238
2011-10-8,87,80,73,73,73,72,100,77,62,29.84,29.78,29.71,6,5,0,9,4,,0.00,5,Fog-Rain,232
2011-10-9,86,80,75,77,75,72,94,88,74,29.86,29.80,29.75,6,6,6,7,3,,0.00,6,Rain,154
2011-10-10,80,76,73,77,74,73,100,94,89,29.90,29.83,29.79,6,4,1,14,4,,0.00,5,Rain,199
2011-10-11,80,76,73,73,72,72,94,87,78,29.91,29.87,29.83,6,6,5,12,6,,0.00,6,Rain,203
2011-10-12,80,76,73,75,73,70,100,86,74,29.93,29.89,29.84,6,6,2,16,6,,0.00,6,Rain,253
2011-10-13,80,76,73,73,73,72,94,89,79,29.89,29.83,29.77,6,5,2,15,8,,0.00,5,Rain,244
2011-10-14,80,76,73,73,72,72,94,90,79,29.88,29.83,29.77,6,5,4,12,7,,0.00,6,Rain,196
2011-10-15,82,78,73,75,73,72,100,85,74,29.90,29.86,29.81,6,6,2,15,7,,0.00,6,Rain,209
2011-10-16,78,74,71,73,72,72,100,98,78,29.95,29.90,29.85,6,4,1,8,5,,0.00,5,Rain,169
2011-10-17,75,73,71,72,71,70,100,96,89,29.94,29.89,29.85,6,3,1,8,5,,0.00,6,Rain,157
2011-10-18,80,76,71,75,72,72,100,89,74,29.96,29.90,29.86,6,5,2,12,6,,0.00,6,Rain,191
2011-10-19,78,74,71,75,73,72,100,94,89,30.01,29.97,29.94,6,6,6,7,4,,0.00,5,Rain,130
2011-10-20,75,73,71,73,72,70,100,94,89,30.02,29.97,29.92,6,4,1,6,2,,0.00,6,Rain,177
2011-10-21,80,76,71,75,72,72,100,93,79,29.99,29.93,29.87,6,5,0,12,2,,0.00,6,Fog-Rain,246
2011-10-22,80,76,71,75,72,70,100,88,78,29.91,29.86,29.80,6,6,1,9,5,,0.00,6,Rain,232
2011-10-23,82,76,71,73,72,70,94,85,74,29.92,29.87,29.81,6,6,6,8,4,,0.00,6,,173
2011-10-24,84,78,71,73,73,70,100,86,66,29.96,29.90,29.82,6,5,0,12,3,,0.00,6,Fog-Rain,310
2011-10-25,84,78,71,75,74,70,94,81,74,29.93,29.85,29.79,6,6,1,12,4,,0.00,5,Rain,259
2011-10-26,89,81,73,73,72,72,94,75,55,29.85,29.77,29.69,6,5,0,12,3,,0.00,4,Fog,190
2011-10-27,86,80,73,75,73,70,94,85,66,29.80,29.75,29.69,6,5,0,7,4,,0.00,5,Fog-Rain-Thunderstorm,166
2011-10-28,86,80,73,77,75,73,100,84,70,29.85,29.79,29.72,6,6,6,9,4,,0.00,5,Rain,214
2011-10-29,82,78,73,73,72,72,94,80,70,29.87,29.81,29.75,6,6,6,6,2,,0.00,6,,206
2011-10-30,86,80,73,75,73,70,94,82,66,29.88,29.81,29.75,6,6,6,9,3,,0.00,6,,193
2011-10-31,82,76,69,73,72,70,100,85,74,29.86,29.81,29.75,6,5,1,8,4,,0.00,5,Rain,165